[Iaude] MPEC B153: 2017 BM32 [a=1.15,e=0.09,i=8.6,H=24.4]

mpec at si.edu mpec at si.edu
Tue Jan 31 07:15:26 EST 2017


M.P.E.C. 2017-B153                               Issued 2017 Jan. 31, 12:12 UT
 
     The Minor Planet Electronic Circulars contain information on unusual
         minor planets and routine data on comets.  They are published
    on behalf of Division F of the International Astronomical Union by the
          Minor Planet Center, Smithsonian Astrophysical Observatory,
                          Cambridge, MA 02138, U.S.A.

             Prepared using the Tamkin Foundation Computer Network

                              MPC at CFA.HARVARD.EDU
            URL http://www.minorplanetcenter.net/    ISSN 1523-6714


                                   2017 BM32
 
Observations:
     K17B32M* C2017 01 29.27734 09 14 13.54 -01 34 54.2          20.9 VqEB153G96
     K17B32M  C2017 01 29.28489 09 14 11.89 -01 35 26.4          20.6 VqEB153G96
     K17B32M  C2017 01 29.29080 09 14 10.65 -01 35 51.7          20.2 VqEB153G96
     K17B32M  C2017 01 29.29515 09 14 09.69 -01 36 10.1          19.9 VqEB153G96
     K17B32M  C2017 01 29.33466109 14 00.76 -01 39 00.4          20.2 GUEB153H01
     K17B32M  C2017 01 29.33802 09 14 00.24 -01 39 10.7          20.0 VqEB153G96
     K17B32M  C2017 01 29.33821909 13 59.99 -01 39 15.6          20.2 GUEB153H01
     K17B32M  C2017 01 29.34005 09 13 59.84 -01 39 21.5          21.0 VqEB153G96
     K17B32M  C2017 01 29.34203 09 13 59.46 -01 39 29.9          20.3 VqEB153G96
     K17B32M  C2017 01 29.34400 09 13 59.07 -01 39 37.4          20.4 VqEB153G96
     K17B32M  C2017 01 29.35034309 13 57.35 -01 40 07.0          20.0 GUEB153H01
     K17B32M  C2017 01 29.35874109 13 55.53 -01 40 42.7          20.1 GUEB153H01
     K17B32M  C2017 01 29.39756 09 13 47.42 -01 43 24.7          20.2 VqEB153I52
     K17B32M  C2017 01 29.39927 09 13 46.96 -01 43 32.9          21.7 VqEB153I52
     K17B32M  C2017 01 29.40276 09 13 46.23 -01 43 47.2          20.1 VqEB153I52
     K17B32M KC2017 01 29.93258 09 12 10.89 -02 21 10.7          19.8 RoEB153K88
     K17B32M KC2017 01 29.94085 09 12 09.16 -02 21 45.8          19.8 RoEB153K88
     K17B32M KC2017 01 30.10916 09 11 34.59 -02 33 19.0          19.8  tEB153104
     K17B32M KC2017 01 30.11309 09 11 33.76 -02 33 34.9          19.7  tEB153104
     K17B32M KC2017 01 30.11877 09 11 32.57 -02 33 58.6                tEB153104
     K17B32M  C2017 01 30.15936 09 11 32.48 -02 36 30.9          20.7 VqEB153I52
     K17B32M  C2017 01 30.16013 09 11 32.37 -02 36 34.3          21.0 VqEB153I52
     K17B32M  C2017 01 30.16090 09 11 32.19 -02 36 38.4          21.1 VqEB153I52
     K17B32M  C2017 01 30.16167 09 11 32.10 -02 36 41.4          21.3 VqEB153I52
     K17B32M KC2017 01 30.97056 09 09 01.33 -03 31 40.3          19.7 RtEB153Z84
     K17B32M KC2017 01 30.97409 09 09 00.58 -03 31 54.7          19.6 RtEB153Z84
     K17B32M  C2017 01 31.26894 09 08 07.36 -03 51 24.1          20.5 VqEB153I52
     K17B32M  C2017 01 31.27005 09 08 07.14 -03 51 28.6          20.8 VqEB153I52
     K17B32M  C2017 01 31.27116 09 08 06.91 -03 51 33.0          20.5 VqEB153I52
     K17B32M  C2017 01 31.27226 09 08 06.67 -03 51 37.2          20.4 VqEB153I52
 
Observer details:
104 San Marcello Pistoiese.  Observers P. Bacci, M. Maestripieri.  Measurers
    P. Bacci, L. Tesi, G. Fagioli.  0.60-m f/4 reflector + CCD.
G96 Mt. Lemmon Survey.  Observer R. A. Kowalski.  Measurers E. J. Christensen,
    D. C. Fuls, A. R. Gibbs, A. D. Grauer, J. A. Johnson, R. A. Kowalski,
    S. M. Larson, G. J. Leonard, R. G. Matheny, R. L. Seaman, F. C. Shelly.
    1.5-m reflector + 10K CCD.
H01 Magdalena Ridge Observatory, Socorro.  Observers W. H. Ryan, E. V. Ryan.
    Measurer W. H. Ryan.  2.4-m f/8.9 reflector + CCD.
I52 Steward Observatory, Mt. Lemmon Station.  Observers J. A. Johnson,
    R. G. Matheny.  Measurers E. J. Christensen, D. C. Fuls, A. R. Gibbs,
    A. D. Grauer, J. A. Johnson, R. A. Kowalski, S. M. Larson, G. J. Leonard,
    R. G. Matheny, R. L. Seaman, F. C. Shelly.  1.0-m reflector + CCD.
K88 GINOP-KHK, Piszkesteto.  Observer K. Sarneczky.  0.60-m Schmidt + CCD.
Z84 Calar Alto-Schmidt.  Observer E. Schwab.  Measurers E. Schwab, M. Micheli,
    D. Koschny.  0.8-m f/3 Schmidt + CCD.
 
Orbital elements:
2017 BM32                                                Earth MOID = 0.0823 AU
Epoch 2017 Feb. 16.0 TT = JDT 2457800.5                 MPC
M  50.41770              (2000.0)            P               Q
n   0.79535301     Peri.  147.52445     +0.03228688     -0.99110883
a   1.1537085      Node   300.32656     +0.88210083     +0.08897987
e   0.0852159      Incl.    8.60025     +0.46995286     -0.09892354
P   1.24           H   24.4           G   0.15           U   7
Residuals in seconds of arc
170129 G96  0.0   0.2+    170129 H01  0.1+  0.1-    170130 I52  0.7-  0.8+
170129 G96  0.2-  0.2+    170129 H01  0.2+  0.2-    170130 I52  0.1-  0.6+
170129 G96  0.4+  0.0     170129 I52  0.5+  0.4+    170130 I52  0.5-  0.3-
170129 G96  0.2+  0.2+    170129 I52  0.9-  0.5-    170130 I52  0.5+  0.1-
170129 H01  0.1+  0.1-    170129 I52  0.6-  0.0     170130 Z84  0.3+  0.1+
170129 G96 (1.3-  1.9+)   170129 K88  0.1-  0.0     170130 Z84  0.2+  0.1-
170129 H01  0.2+  0.2-    170129 K88  0.1-  0.6-    170131 I52  0.2-  0.1-
170129 G96  0.7-  0.3-    170130 104  0.4+  0.1-    170131 I52  0.0   0.1-
170129 G96  0.1+  0.3-    170130 104  0.0   0.2+    170131 I52  0.1+  0.1-
170129 G96  0.7+  0.6+    170130 104  0.5-  0.0     170131 I52  0.1-  0.0

Ephemeris:
2017 BM32                a,e,i = 1.15, 0.09, 9                   q = 1.0554
Date    TT    R. A. (2000) Decl.     Delta      r     Elong.  Phase     V
2017 01 01    10 29 02.5 +34 35 17   0.1111  1.0587   130.4    45.0    21.5
...
2017 01 16    09 55 45.3 +16 16 16   0.09475 1.0669   150.2    27.3    20.6
...
2017 01 24    09 30 59.3 +05 08 47   0.09464 1.0731   158.6    19.5    20.4
...
2017 01 30    09 11 57.7 -02 24 40   0.09924 1.0784   159.1    19.0    20.5
2017 01 31    09 08 54.5 -03 32 38   0.1004  1.0794   158.7    19.4    20.6
2017 02 01    09 05 54.7 -04 38 05   0.1016  1.0803   158.1    19.9    20.6
...
2017 02 07    08 49 29.2 -10 14 51   0.1110  1.0864   153.1    24.2    20.9
...
2017 02 15    08 32 46.7 -15 19 55   0.1277  1.0953   145.5    30.7    21.5
...
2017 03 02    08 18 43.5 -19 25 33   0.1674  1.1137   133.9    39.9    22.3

A. U. Tomatic                (C) Copyright 2017 MPC           M.P.E.C. 2017-B153




More information about the Iaude mailing list